Погода в Песочном

Россия / Самарская область     52°55′44″N   49°25′38″E
темп.,
°C
ветер,
м/с
пор.,
м/с
влажн.,
%
обл.,
%
осадки,
мм/ч
давл.,
гПа
погр.,
м
29 июля, чт
чт2901:00+19в244499 0.0 101462
04:00+16вюв2251100 0.0 101418
07:00+20юв2243100 0.0 1014114
10:00+27ююз4436100 0.0 10131294
13:00+23зсз3353100 0.1 1013217
16:00+21вюв3565100 0.3 1012154
19:00+22ююз5854100 0.0 1010506
22:00+17ю398297 0.1 1009189
30 июля, пт
пт3001:00+17ююз358980 1.3 100899
04:00+16юз36914 1.6 1008116
07:00+19зюз368698 0.3 1007192
10:00+26зсз47568 0.3 1008971
13:00+31з693798 0.0 10072289
16:00+29з473935 0.0 1007739
19:00+29з354388 0.0 1007389
22:00+23ююв226111 0.1 100714
31 июля, сб
сб3101:00+22ю226926 0.0 100726
04:00+20юз348141 0.0 100664
07:00+22юз497373 0.0 1007347
10:00+20юз3789100 0.8 1007215
13:00+24зюз3674100 0.1 1007430
16:00+31зюз6840100 0.1 10061474
19:00+23зсз2381100 2.2 100783
22:00+22з22770 2.9 100913
1 августа, вс
вс101:00+19зсз34791 0.0 101054
04:00+18з22812 0.0 101115
07:00+20з256991 0.0 1013133
10:00+28зюз463496 0.0 10131140
13:00+32з672764 0.0 10122709
16:00+33з67265 0.0 10112854
19:00+31з473141 0.0 1011496
22:00+23ссв22475 0.0 101311
2 августа, пн
пн201:00+22вюв22520 0.0 101311
04:00+21ююв22560 0.0 101313
07:00+24ююз245194 0.0 1014137
10:00+31юз46305 0.0 1013904
13:00+35зюз672482 0.0 10122670
16:00+35зюз572424 0.0 10112446
19:00+33зюз113081 0.0 101013
22:00+27юв5114013 0.0 1010197